Location: Key Biscayne
(25.6930°N, 80.1630°W)
Time: 09:37:12
(UTC-05:00)

Tiangong 2 - Pass Details

Date: 11 November 2017
Orbit: 386 x 392 km, 42.8° (Epoch: 24 November)

Event Time Altitude Azimuth Distance (km) Brightness Sun altitude
Rises 19:14:30 0° 316° (NW) 2,266 5.5 -22.9°
Reaches altitude 10° 19:16:41 10° 326° (NW) 1,409 4.2 -23.4°
Enters shadow 19:17:09 13° 329° (NNW) 1,240 3.8 -23.5°
